• en Belgique
  • Liste des pays
  • À 7 jours
  • Température de l'eau
  • Carte satellitaire
  • Carte météo
  • Widgets météo
  • user-avatar
    Se connecter

    Météo par heure à Rogale

    Ce jour, 22 Octobre, Lundi

    Heure Température Précipitation Vent Pression Humidité
    00:00 +4°C° 0 mm 3 m/s 756 mmHg 89%
    01:00 +4°C° 0 mm 3 m/s 756 mmHg 90%
    02:00 +4°C° 0 mm 3 m/s 756 mmHg 90%
    03:00 +4°C° 0 mm 3 m/s 755 mmHg 90%
    04:00 +3°C° 0 mm 3 m/s 755 mmHg 90%
    05:00 +4°C° 0 mm 4 m/s 755 mmHg 89%
    06:00 +4°C° 0 mm 4 m/s 754 mmHg 89%
    07:00 +4°C° 0 mm 4 m/s 754 mmHg 88%
    08:00 +5°C° 0 mm 4 m/s 754 mmHg 82%
    09:00 +7°C° 0 mm 5 m/s 753 mmHg 76%
    10:00 +8°C° 0 mm 5 m/s 753 mmHg 70%
    11:00 +8°C° 0.1 mm 5 m/s 752 mmHg 70%
    12:00 +9°C° 0.1 mm 5 m/s 752 mmHg 69%
    13:00 +9°C° 0.1 mm 5 m/s 751 mmHg 69%
    14:00 +9°C° 0.5 mm 5 m/s 751 mmHg 74%
    15:00 +8°C° 0.5 mm 5 m/s 751 mmHg 80%
    16:00 +8°C° 0.5 mm 5 m/s 750 mmHg 86%
    17:00 +7°C° 0.3 mm 5 m/s 750 mmHg 86%
    18:00 +7°C° 0.3 mm 4 m/s 750 mmHg 86%
    19:00 +6°C° 0.3 mm 4 m/s 750 mmHg 86%
    20:00 +6°C° 0 mm 4 m/s 751 mmHg 86%
    21:00 +5°C° 0 mm 3 m/s 751 mmHg 87%
    22:00 +4°C° 0 mm 3 m/s 751 mmHg 87%
    23:00 +4°C° 0 mm 3 m/s 751 mmHg 86%

    Demain, 23 Octobre, Mardi

    Heure Température Précipitation Vent Pression Humidité
    00:00 +4°C° 0 mm 3 m/s 750 mmHg 85%
    01:00 +3°C° 0 mm 3 m/s 750 mmHg 85%
    02:00 +3°C° 0 mm 3 m/s 750 mmHg 85%
    03:00 +3°C° 0 mm 4 m/s 749 mmHg 85%
    04:00 +3°C° 0 mm 4 m/s 748 mmHg 85%
    05:00 +4°C° 0.1 mm 4 m/s 748 mmHg 85%
    06:00 +3°C° 0.1 mm 5 m/s 747 mmHg 84%
    07:00 +3°C° 0.1 mm 5 m/s 746 mmHg 84%
    08:00 +4°C° 0.1 mm 6 m/s 745 mmHg 81%
    09:00 +5°C° 0.1 mm 7 m/s 744 mmHg 78%
    10:00 +5°C° 0.1 mm 7 m/s 743 mmHg 75%
    11:00 +5°C° 0.9 mm 8 m/s 741 mmHg 76%
    12:00 +5°C° 0.9 mm 9 m/s 739 mmHg 78%
    13:00 +3°C° 0.9 mm 9 m/s 737 mmHg 79%
    14:00 +3°C° 1.8 mm 9 m/s 736 mmHg 82%
    15:00 +5°C° 1.8 mm 9 m/s 734 mmHg 84%
    16:00 +5°C° 1.8 mm 8 m/s 732 mmHg 87%
    17:00 +5°C° 0.6 mm 8 m/s 731 mmHg 86%
    18:00 +6°C° 0.6 mm 7 m/s 730 mmHg 85%
    19:00 +7°C° 0.6 mm 6 m/s 729 mmHg 84%
    20:00 +7°C° 0.4 mm 6 m/s 729 mmHg 83%
    21:00 +7°C° 0.4 mm 6 m/s 729 mmHg 82%
    22:00 +7°C° 0.4 mm 6 m/s 728 mmHg 82%
    23:00 +7°C° 0.7 mm 6 m/s 728 mmHg 82%

    Après-demain, 24 Octobre, Mercredi

    Heure Température Précipitation Vent Pression Humidité
    00:00 +5°C° 0.7 mm 6 m/s 727 mmHg 82%
    01:00 +5°C° 0.7 mm 6 m/s 727 mmHg 82%
    02:00 +5°C° 1.1 mm 7 m/s 727 mmHg 81%
    03:00 +4°C° 1.1 mm 8 m/s 726 mmHg 80%
    04:00 +3°C° 1.1 mm 10 m/s 726 mmHg 80%
    05:00 +3°C° 0.5 mm 9 m/s 727 mmHg 79%
    06:00 +4°C° 0.5 mm 8 m/s 727 mmHg 79%
    07:00 +4°C° 0.5 mm 8 m/s 728 mmHg 78%
    08:00 +5°C° 0.2 mm 9 m/s 728 mmHg 74%
    09:00 +5°C° 0.2 mm 10 m/s 729 mmHg 70%
    10:00 +5°C° 0.2 mm 12 m/s 730 mmHg 66%
    11:00 +5°C° 1 mm 12 m/s 731 mmHg 69%
    12:00 +4°C° 1 mm 12 m/s 731 mmHg 72%
    13:00 +4°C° 1 mm 12 m/s 732 mmHg 74%
    14:00 +4°C° 0.2 mm 12 m/s 733 mmHg 72%
    15:00 +4°C° 0.2 mm 11 m/s 734 mmHg 69%
    16:00 +5°C° 0.2 mm 10 m/s 736 mmHg 67%
    17:00 +5°C° 0.1 mm 10 m/s 737 mmHg 68%
    18:00 +3°C° 0.1 mm 9 m/s 738 mmHg 70%
    19:00 +4°C° 0.1 mm 8 m/s 739 mmHg 71%
    20:00 +4°C° 0.1 mm 8 m/s 739 mmHg 73%
    21:00 +3°C° 0.1 mm 7 m/s 740 mmHg 75%
    22:00 +3°C° 0.1 mm 7 m/s 741 mmHg 77%
    23:00 +3°C° 0 mm 6 m/s 741 mmHg 78%

    25 Octobre, Jeudi

    Heure Température Précipitation Vent Pression Humidité
    00:00 +3°C° 0 mm 6 m/s 741 mmHg 79%
    01:00 +3°C° 0 mm 5 m/s 742 mmHg 80%
    02:00 +2°C° 0 mm 5 m/s 742 mmHg 81%
    03:00 +2°C° 0 mm 5 m/s 742 mmHg 81%
    04:00 +3°C° 0 mm 4 m/s 742 mmHg 82%
    05:00 +3°C° 0 mm 4 m/s 742 mmHg 82%
    06:00 +3°C° 0 mm 4 m/s 742 mmHg 82%
    07:00 +3°C° 0 mm 4 m/s 742 mmHg 82%
    08:00 +4°C° 0 mm 4 m/s 741 mmHg 78%
    09:00 +5°C° 0 mm 5 m/s 741 mmHg 75%
    10:00 +6°C° 0 mm 5 m/s 740 mmHg 71%
    11:00 +6°C° 0.4 mm 4 m/s 740 mmHg 76%
    12:00 +6°C° 0.4 mm 4 m/s 739 mmHg 82%
    13:00 +5°C° 0.4 mm 4 m/s 739 mmHg 88%
    14:00 +6°C° 0.1 mm 4 m/s 738 mmHg 88%
    15:00 +6°C° 0.1 mm 4 m/s 738 mmHg 89%
    16:00 +8°C° 0.1 mm 3 m/s 737 mmHg 90%
    17:00 +8°C° 0.1 mm 3 m/s 737 mmHg 90%
    18:00 +7°C° 0.1 mm 4 m/s 737 mmHg 90%
    19:00 +7°C° 0.1 mm 4 m/s 738 mmHg 91%
    20:00 +7°C° 0.1 mm 3 m/s 738 mmHg 90%
    21:00 +7°C° 0.1 mm 3 m/s 738 mmHg 90%
    22:00 +7°C° 0.1 mm 3 m/s 738 mmHg 90%
    23:00 +7°C° 0 mm 3 m/s 738 mmHg 89%

    26 Octobre, Vendredi

    Heure Température Précipitation Vent Pression Humidité
    00:00 +5°C° 0 mm 3 m/s 739 mmHg 89%
    01:00 +5°C° 0 mm 3 m/s 739 mmHg 89%
    02:00 +5°C° 0 mm 3 m/s 739 mmHg 90%
    03:00 +5°C° 0 mm 3 m/s 739 mmHg 91%
    04:00 +4°C° 0 mm 3 m/s 739 mmHg 91%
    05:00 +5°C° 0 mm 3 m/s 739 mmHg 92%
    06:00 +5°C° 0 mm 3 m/s 739 mmHg 93%
    07:00 +5°C° 0 mm 3 m/s 739 mmHg 95%
    08:00 +6°C° 0.1 mm 4 m/s 739 mmHg 92%
    09:00 +7°C° 0.1 mm 4 m/s 739 mmHg 90%
    10:00 +8°C° 0.1 mm 4 m/s 739 mmHg 88%
    11:00 +8°C° 0.3 mm 5 m/s 739 mmHg 87%
    12:00 +8°C° 0.3 mm 5 m/s 739 mmHg 85%
    13:00 +8°C° 0.3 mm 6 m/s 738 mmHg 84%
    14:00 +8°C° 0.1 mm 6 m/s 738 mmHg 83%
    15:00 +8°C° 0.1 mm 6 m/s 738 mmHg 83%
    16:00 +7°C° 0.1 mm 5 m/s 738 mmHg 82%
    17:00 +7°C° 0 mm 5 m/s 738 mmHg 81%
    18:00 +7°C° 0 mm 5 m/s 738 mmHg 80%
    19:00 +7°C° 0 mm 5 m/s 738 mmHg 80%
    20:00 +7°C° 0 mm 5 m/s 738 mmHg 81%
    21:00 +6°C° 0 mm 5 m/s 738 mmHg 82%
    22:00 +6°C° 0 mm 5 m/s 738 mmHg 83%
    23:00 +6°C° 0 mm 5 m/s 738 mmHg 84%

    27 Octobre, Samedi

    Heure Température Précipitation Vent Pression Humidité
    00:00 +6°C° 0 mm 5 m/s 738 mmHg 86%
    01:00 +6°C° 0 mm 4 m/s 738 mmHg 88%
    02:00 +5°C° 0 mm 4 m/s 738 mmHg 89%
    03:00 +5°C° 0 mm 4 m/s 738 mmHg 90%
    04:00 +5°C° 0 mm 4 m/s 739 mmHg 92%
    05:00 +5°C° 0 mm 3 m/s 739 mmHg 93%
    06:00 +4°C° 0 mm 3 m/s 739 mmHg 94%
    07:00 +4°C° 0 mm 3 m/s 739 mmHg 95%
    08:00 +5°C° 0 mm 3 m/s 739 mmHg 88%
    09:00 +7°C° 0 mm 3 m/s 739 mmHg 82%
    10:00 +8°C° 0 mm 3 m/s 740 mmHg 75%
    11:00 +9°C° 0 mm 2 m/s 739 mmHg 74%
    12:00 +9°C° 0 mm 2 m/s 739 mmHg 72%
    13:00 +10°C° 0 mm 1 m/s 739 mmHg 71%
    14:00 +10°C° 0.8 mm 1 m/s 739 mmHg 77%
    15:00 +8°C° 0.8 mm 2 m/s 738 mmHg 83%
    16:00 +7°C° 0.8 mm 2 m/s 738 mmHg 90%
    17:00 +7°C° 1.2 mm 2 m/s 738 mmHg 90%
    18:00 +7°C° 1.2 mm 3 m/s 738 mmHg 90%
    19:00 +5°C° 1.2 mm 4 m/s 737 mmHg 91%
    20:00 +5°C° 0.5 mm 4 m/s 737 mmHg 89%
    21:00 +5°C° 0.5 mm 4 m/s 737 mmHg 88%
    22:00 +5°C° 0.5 mm 4 m/s 737 mmHg 87%
    23:00 +5°C° 0.1 mm 4 m/s 738 mmHg 87%

    28 Octobre, Dimanche

    Heure Température Précipitation Vent Pression Humidité
    00:00 +4°C° 0.1 mm 4 m/s 738 mmHg 87%
    01:00 +4°C° 0.1 mm 3 m/s 738 mmHg 87%
    02:00 +4°C° 0 mm 3 m/s 739 mmHg 89%
    03:00 +4°C° 0 mm 3 m/s 739 mmHg 90%
    04:00 +3°C° 0 mm 3 m/s 739 mmHg 91%
    05:00 +3°C° 0 mm 3 m/s 740 mmHg 92%
    06:00 +3°C° 0 mm 3 m/s 740 mmHg 92%
    07:00 +3°C° 0 mm 3 m/s 741 mmHg 93%
    08:00 +4°C° 0 mm 3 m/s 741 mmHg 89%
    09:00 +5°C° 0 mm 4 m/s 742 mmHg 86%
    10:00 +6°C° 0 mm 4 m/s 742 mmHg 83%
    11:00 +6°C° 0.1 mm 4 m/s 742 mmHg 81%
    12:00 +6°C° 0.1 mm 4 m/s 742 mmHg 79%
    13:00 +7°C° 0.1 mm 5 m/s 743 mmHg 78%
    14:00 +6°C° 0.1 mm 5 m/s 743 mmHg 79%
    15:00 +6°C° 0.1 mm 5 m/s 743 mmHg 81%
    16:00 +5°C° 0.1 mm 5 m/s 743 mmHg 83%
    17:00 +5°C° 0.1 mm 5 m/s 743 mmHg 83%
    18:00 +5°C° 0.1 mm 5 m/s 743 mmHg 84%
    19:00 +4°C° 0.1 mm 6 m/s 744 mmHg 85%
    20:00 +4°C° 0.3 mm 6 m/s 744 mmHg 85%
    21:00 +4°C° 0.3 mm 6 m/s 744 mmHg 86%
    22:00 +3°C° 0.3 mm 6 m/s 744 mmHg 86%
    23:00 +3°C° 0.4 mm 5 m/s 744 mmHg 87%
    Voir plus